This demonstration page uses our WeatherBlox Daily Observations layout. Learn more.

Left ArrowRight Arrow

Hourly Observations for August 26, 2017

Temp ( °F °C ) Dew Point ( °F °C ) Humidity (%) Winds ( mph kmh ) Pressure ( in mb ) Visibility ( mi km ) Precip ( " mm )
12:52 am 00:52 Clear 69 20.6 62 16.7 78 78 SE 7 11 30.10 1019 10 16 0.00 0.00
1:52 am 01:52 Clear 69 20.6 62 16.7 78 78 ESE 5 7 30.11 1020 10 16 0.00 0.00
2:52 am 02:52 Clear 68 20 61 16.1 78 78 ESE 6 9 30.11 1020 10 16 0.00 0.00
3:52 am 03:52 Mostly Clear 68 20 61 16.1 78 78 ESE 6 9 30.11 1020 10 16 0.00 0.00
4:52 am 04:52 Clear 68 20 60 15.6 76 76 SE 6 9 30.12 1020 10 16 0.00 0.00
5:52 am 05:52 Clear 67 19.4 60 15.6 79 79 SE 6 9 30.13 1020 10 16 0.00 0.00
6:52 am 06:52 Sunny 67 19.4 60 15.6 79 79 SSE 7 11 30.13 1020 10 16 0.00 0.00
7:52 am 07:52 Mostly Sunny 68 20 60 15.6 76 76 SSE 8 13 30.13 1020 10 16 0.00 0.00
8:52 am 08:52 Partly Cloudy 70 21.1 61 16.1 73 73 SE 8 13 30.14 1021 10 16 0.00 0.00
9:52 am 09:52 Mostly Sunny 72 22.2 60 15.6 66 66 SE 6 9 30.15 1021 10 16 0.00 0.00
10:52 am 10:52 Mostly Sunny 73 22.8 61 16.1 66 66 SE 6 9 30.15 1021 10 16 0.00 0.00
11:52 am 11:52 Sunny 74 23.3 62 16.7 67 67 S 7 11 30.15 1021 10 16 0.00 0.00
12:52 pm 12:52 Sunny 75 23.9 63 17.2 66 66 S 7 11 30.13 1020 10 16 0.00 0.00
1:52 pm 13:52 Sunny 79 26.1 64 17.8 60 60 SE 6 9 30.11 1020 10 16 0.00 0.00
2:52 pm 14:52 Sunny 80 26.7 64 17.8 58 58 SSE 6 9 30.09 1019 10 16 0.00 0.00
3:52 pm 15:52 Sunny 80 26.7 64 17.8 58 58 S 7 11 30.09 1019 10 16 0.00 0.00
4:52 pm 16:52 Sunny 80 26.7 62 16.7 54 54 ESE 7 11 30.09 1019 10 16 0.00 0.00
5:52 pm 17:52 Sunny 79 26.1 63 17.2 58 58 SSE 6 9 30.08 1019 10 16 0.00 0.00
6:52 pm 18:52 Sunny 77 25 65 18.3 66 66 S 6 9 30.08 1019 10 16 0.00 0.00
7:52 pm 19:52 Clear 74 23.3 64 17.8 71 71 SE 5 7 30.08 1019 10 16 0.00 0.00
8:52 pm 20:52 Clear 70 21.1 63 17.2 79 79 SE 5 7 30.09 1019 10 16 0.00 0.00
9:52 pm 21:52 Clear 69 20.6 62 16.7 78 78 SE 5 7 30.09 1019 10 16 0.00 0.00
10:52 pm 22:52 Clear 67 19.4 62 16.7 84 84 Calm 30.10 1019 10 16 0.00 0.00
11:52 pm 23:52 Clear 65 18.3 62 16.7 90 90 SSE 3 6 30.09 1019 10 16 0.00 0.00

Powered by AerisWeather